Location: Chiroubles
(46.1812°N, 4.6660°E)
Time: 06:36:02
(UTC+00:00)

Transit 4A - Pass Details

Date: 03 December 2020
Orbit: 864 x 981 km, 66.8° (Epoch: 16 January)

Event Time Altitude Azimuth Distance (km) Brightness Sun altitude
Rises 12:07:06 0° 322° (NW) 3,692 10.6 21.1°
Reaches altitude 10° 12:11:22 10° 348° (NNW) 2,738 9.9 21.0°
Maximum altitude 12:14:20 13° 16° (NNE) 2,490 9.7 20.9°
Drops below altitude 10° 12:17:17 10° 44° (NE) 2,717 9.9 20.8°
Sets 12:21:28 0° 71° (ENE) 3,641 10.7 20.7°
